Back to catalog

NAVSTAR 15

USA 42

AliveNavigationMEO
NORAD 20185·PAYLOAD·🇺🇸 United States

Launched Aug 18, 1989 from Cape Canaveral Space Force Station

Loading…

Next Passes (next 24 hours)

TLE

FreshSource: Space-Track

Epoch: Sep 7, 2026, 22:27 UTC

1 20185U 89064A   26250.93546580  .00000025  00000-0  00000-0 0  9995
2 20185  55.0361  86.5492 0008642 346.8131 191.2167  1.86088523257741

Track NAVSTAR 15 in real time with AllMySat

Download on the App Store